Syracuse, NY

12:06 AM EST on December 10, 2019 (GMT -0500)
Syracuse Hancock International

Weather History for KSYR - October, 2019

Change the Weather History Date:

Wednesday, October 23, 2019

  Actual Average Record
Temperature  
Mean Temperature 52 °F 48 °F  
Max Temperature 62 °F 57 °F 77 °F (1991)
Min Temperature 43 °F 39 °F 27 °F (1969)
Degree Days  
Heating Degree Days 12 17  
Month to date heating degree days 283 307  
Since 1 July heating degree days 358 474  
Cooling Degree Days 0 0  
Month to date cooling degree days 11 0  
Year to date cooling degree days 622 565  
Growing Degree Days 2 (Base 50)    
Moisture  
Dew Point 40 °F    
Average Humidity 66    
Maximum Humidity 93    
Minimum Humidity 39    
Precipitation  
Precipitation 0.00 in 0.11 in 2.54 in (1937)
Month to date precipitation 4.02 2.55  
Year to date precipitation 38.15 30.83  
Snow  
Snow 0.00 in 0.00 in 1.20 in (1997)
Month to date snowfall 0.0 0.1  
Since 1 July snowfall T 0.1  
Since 1 September snowfall T 0.1  
Snow Depth 0.00 in    
Sea Level Pressure  
Sea Level Pressure 29.94 in    
Wind  
Wind Speed 5 mph ()    
Max Wind Speed 22 mph    
Max Gust Speed 30 mph    
Visibility 9.9 miles    
Events Fog    
T = Trace of Precipitation, MM = Missing Value Source: Averaged Metar Reports

Daily Weather History Graph

Daily Weather History Graph

Search for Another Location

Airport or City:

Astronomy

Oct. 23, 2019 Rise Set
Actual Time 7:27 AM EDT 6:09 PM EDT
Civil Twilight 6:58 AM EDT 6:38 PM EDT
Nautical Twilight 6:25 AM EDT 7:11 PM EDT
Astronomical Twilight 5:52 AM EDT 7:44 PM EDT
Moon 1:31 AM EDT (10/23) 4:08 PM EDT (10/23)
Length of Visible Light 11h 39m
Length of Day
10h 41m
Waning Crescent, 27% of the Moon is Illuminated
Oct 23
Waning Crescent
Oct 27
New
Nov 4
First Quarter
Nov 12
Full
Nov 19
Last Quarter

Hourly Weather History & Observations

Time (EDT) Temp. Windchill Dew Point Humidity Pressure Visibility Wind Dir Wind Speed Gust Speed Precip Events Conditions
12:54 AM 51.1 °F - 48.9 °F 92% 29.81 in 9.0 mi Calm Calm - N/A   Mostly Cloudy
1:54 AM 53.1 °F - 48.9 °F 86% 29.81 in 10.0 mi Calm Calm - N/A   Mostly Cloudy
2:54 AM 50.0 °F - 48.0 °F 93% 29.82 in 10.0 mi Calm Calm - N/A   Mostly Cloudy
3:54 AM 50.0 °F - 48.0 °F 93% 29.82 in 10.0 mi Calm Calm - N/A Fog Patches of Fog
4:54 AM 51.1 °F - 45.0 °F 80% 29.83 in 10.0 mi WSW 9.2 mph - N/A   Mostly Cloudy
5:54 AM 48.0 °F - 43.0 °F 83% 29.85 in 10.0 mi West 3.5 mph - N/A   Scattered Clouds
6:54 AM 44.1 °F - 42.1 °F 93% 29.86 in 9.0 mi Calm Calm - N/A   Partly Cloudy
7:54 AM 44.1 °F 42.5 °F 42.1 °F 93% 29.88 in 10.0 mi SE 3.5 mph - N/A   Partly Cloudy
8:54 AM 52.0 °F - 44.1 °F 74% 29.89 in 10.0 mi SE 4.6 mph - N/A   Scattered Clouds
9:54 AM 55.0 °F - 43.0 °F 64% 29.91 in 10.0 mi WSW 13.8 mph - N/A   Scattered Clouds
10:54 AM 57.0 °F - 42.1 °F 57% 29.91 in 10.0 mi WSW 13.8 mph - N/A   Mostly Cloudy
11:54 AM 57.0 °F - 41.0 °F 55% 29.91 in 10.0 mi WSW 10.4 mph - N/A   Scattered Clouds
12:54 PM 57.0 °F - 39.9 °F 53% 29.91 in 10.0 mi West 12.7 mph 23.0 mph N/A   Mostly Cloudy
1:54 PM 60.1 °F - 39.9 °F 47% 29.91 in 10.0 mi WSW 16.1 mph - N/A   Mostly Cloudy
2:54 PM 57.9 °F - 35.1 °F 42% 29.93 in 10.0 mi SW 16.1 mph - N/A   Mostly Cloudy
3:54 PM 59.0 °F - 35.1 °F 41% 29.95 in 10.0 mi West 16.1 mph - N/A   Mostly Cloudy
4:54 PM 57.9 °F - 33.1 °F 39% 29.97 in 10.0 mi West 17.3 mph 25.3 mph N/A   Scattered Clouds
5:54 PM 55.9 °F - 32.0 °F 40% 30.01 in 10.0 mi West 16.1 mph - N/A   Partly Cloudy
6:54 PM 51.1 °F - 33.1 °F 50% 30.04 in 10.0 mi West 8.1 mph - N/A   Partly Cloudy
7:54 PM 48.9 °F - 34.0 °F 56% 30.06 in 10.0 mi SW 4.6 mph - N/A   Partly Cloudy
8:54 PM 46.0 °F 42.5 °F 34.0 °F 63% 30.08 in 10.0 mi WSW 6.9 mph - N/A   Partly Cloudy
9:54 PM 45.0 °F 41.2 °F 33.1 °F 63% 30.09 in 10.0 mi SSW 6.9 mph - N/A   Clear
10:54 PM 45.0 °F 41.8 °F 33.1 °F 63% 30.11 in 10.0 mi SSW 5.8 mph - N/A   Clear
11:54 PM 46.0 °F 41.9 °F 30.9 °F 56% 30.11 in 10.0 mi SSW 8.1 mph - N/A   Clear